CST,Max TemperatureF,Mean TemperatureF,Min TemperatureF,Max Dew PointF,MeanDew PointF,Min DewpointF,Max Humidity, Mean Humidity, Min Humidity, Max Sea Level PressureIn, Mean Sea Level PressureIn, Min Sea Level PressureIn, Max VisibilityMiles, Mean VisibilityMiles, Min VisibilityMiles, Max Wind SpeedMPH, Mean Wind SpeedMPH, Max Gust SpeedMPH,PrecipitationIn, CloudCover, Events, WindDirDegrees
2013-2-1,66,48,30,40,31,20,68,49,28,30.29,30.18,30.09,10,9,8,17,3,25,0.00,0,,188
2013-2-2,75,55,35,49,38,32,86,52,25,30.25,30.16,30.09,10,9,7,16,3,,0.00,0,,343
2013-2-3,71,53,35,46,39,29,76,54,28,30.28,30.13,29.89,10,9,7,17,5,23,0.00,2,,156
2013-2-4,78,64,48,54,44,32,78,52,21,29.94,29.84,29.73,9,9,7,12,7,20,0.00,3,,236
2013-2-5,78,56,35,41,33,28,73,43,15,29.97,29.89,29.82,10,9,5,7,2,,0.00,0,,249
2013-2-6,79,62,44,57,48,36,84,58,26,29.91,29.84,29.74,9,8,7,15,5,22,0.00,2,,222
2013-2-7,75,66,57,58,48,28,88,58,15,30.07,29.91,29.83,9,8,5,21,8,31,0.00,4,,256
2013-2-8,69,55,41,40,31,26,70,40,12,30.19,30.09,30.01,10,9,7,15,9,16,0.00,0,,74
2013-2-9,69,62,55,62,51,28,81,68,38,29.99,29.82,29.67,9,7,6,20,10,31,0.00,7,Rain,157
2013-2-10,70,59,48,62,33,20,78,41,11,29.93,29.83,29.62,10,9,6,17,8,31,0.04,3,Rain,303
2013-2-11,62,56,50,46,39,28,86,57,22,30.00,29.94,29.90,10,9,5,15,6,20,0.00,7,Rain,77
2013-2-12,63,52,42,50,39,10,97,68,11,30.04,29.89,29.81,10,5,1,23,8,36,0.01,5,,319
2013-2-13,62,44,26,31,22,14,85,48,16,30.13,30.05,29.97,10,9,5,10,3,,0.00,0,,310
2013-2-14,71,49,27,30,22,19,72,43,14,30.08,30.00,29.91,10,9,5,13,4,22,0.00,0,,223
2013-2-15,57,46,36,34,29,21,70,51,32,30.36,30.20,30.00,10,9,7,17,7,24,0.00,3,,17
2013-2-16,66,45,24,22,19,18,77,43,8,30.43,30.29,30.16,10,9,7,9,3,16,0.00,0,,260
2013-2-17,71,50,28,47,32,18,69,44,23,30.18,30.00,29.84,10,9,5,22,6,28,0.00,0,,181
2013-2-18,78,66,53,52,34,7,75,41,4,30.04,29.86,29.77,9,8,7,18,12,28,0.00,3,,233
2013-2-19,66,54,41,37,26,22,58,35,15,30.18,30.07,29.97,10,9,7,17,8,23,0.00,3,Rain,105
2013-2-20,68,60,51,61,49,20,89,75,25,29.98,29.77,29.52,10,7,4,21,9,29,0.00,8,Rain,122
2013-2-21,71,58,44,61,34,12,83,42,4,29.81,29.67,29.49,9,8,5,22,12,38,0.00,3,Rain,254
2013-2-22,61,49,37,34,27,16,81,49,19,30.06,29.95,29.82,10,9,7,12,6,,0.00,1,,62
2013-2-23,70,49,28,30,19,11,75,38,4,30.03,29.91,29.82,10,9,7,14,3,18,0.00,0,,282
2013-2-24,75,54,32,54,40,13,77,53,31,29.81,29.65,29.49,10,8,7,20,7,28,0.00,2,,164
2013-2-25,64,52,41,55,30,19,77,48,28,29.89,29.71,29.43,9,7,4,33,16,54,0.02,4,,283
2013-2-26,69,48,28,25,18,11,75,34,5,29.94,29.83,29.75,10,9,7,12,6,17,0.00,0,,262
2013-2-27,60,50,39,29,19,12,62,30,9,30.22,30.07,29.79,10,8,7,20,9,28,0.00,0,,331
2013-2-28,62,45,28,25,17,13,64,36,8,30.29,30.22,30.16,10,9,6,12,4,18,0.00,0,,331